RH
96 94 92 86 80 73 69 66 63 61 62 62 62 61 60 60 60 60 61 63 66 69 73 76 79 80 80 80 81 82 84 85 85 85 84 84 85 87 89 91 92 92 90 86 83 79 76 75 77 82 89 92 93 93 94 94 94 94 93 93 92 92 91 91 91 91 91 92 92 92 92 92 93 93 94 94 94 93 94 93 94 94 93 93 93 93
86 83 79 74 68 63 60 61 60 59 59 60 59 58 56 55 53 52 52 54 58 62 65 68 71 74 75 76 76 77 78 79 79 78 77 77 78 80 82 83 83 81 77 73 69 68 68 75 82 89 93 93 93 94 93 93 93 92 91 90 89 89 88 89 90 91 92 92 92 92 92 92 93 94 94 94 93 93 93 93 93 94 94 93 92 93
74 70 66 62 58 56 55 57 59 59 57 55 54 52 49 47 46 46 47 50 54 58 62 63 65 66 67 67 67 66 66 65 65 64 63 64 65 67 68 67 64 61 59 57 58 62 71 82 89 93 93 93 93 93 93 92 91 90 88 86 85 84 84 88 90 91 92 92 92 92 92 93 92 92 93 93 92 92 93 93 93 93 92 91 91 90
60 58 56 54 54 54 55 55 56 56 54 50 47 44 43 42 42 43 45 47 49 51 54 54 54 54 54 53 52 51 50 49 48 48 48 48 50 50 51 50 48 47 48 50 56 65 76 85 90 92 92 93 92 92 91 89 86 83 80 77 77 78 81 88 91 92 92 92 92 91 91 92 92 91 92 93 92 92 92 92 92 92 91 91 90 88
50 50 51 52 54 55 55 55 54 52 50 46 42 39 39 40 41 42 43 43 43 43 43 42 41 40 41 41 41 40 38 37 37 38 39 40 42 43 44 44 45 45 46 49 57 67 75 81 85 88 88 88 87 85 83 79 75 71 68 67 69 73 79 87 91 92 93 92 92 92 91 92 93 93 93 92 91 90 90 90 90 91 93 92 92 92
46 47 50 53 54 54 52 52 52 51 49 46 43 41 40 40 39 38 38 37 37 36 35 34 32 32 33 35 35 35 34 34 34 35 37 40 43 44 45 46 46 46 46 49 56 64 70 74 76 78 78 79 77 75 71 67 63 60 58 61 67 76 84 90 92 93 92 92 92 93 93 92 92 92 92 91 90 90 91 90 90 91 93 92 92 93
46 48 49 51 53 53 51 49 49 50 50 49 48 47 46 43 39 35 32 31 31 31 31 31 30 30 31 32 33 34 35 35 36 38 41 44 45 46 46 45 45 44 44 44 49 55 60 62 65 67 70 70 68 65 62 58 54 52 53 60 71 82 90 91 92 93 92 93 93 92 93 92 92 91 91 91 92 92 91 92 92 92 93 93 93 93
45 47 49 49 51 52 54 52 51 50 51 52 51 49 47 45 40 35 29 28 27 28 30 30 31 32 35 35 35 35 37 39 41 43 45 46 46 45 43 42 41 41 40 40 42 44 48 49 53 58 62 62 60 57 55 52 50 51 55 66 76 85 90 91 92 93 93 93 93 93 93 92 92 92 91 92 92 92 92 93 93 92 93 93 93 93
42 44 47 49 49 50 51 54 55 55 54 54 52 48 44 42 40 38 35 31 30 30 31 31 32 35 41 42 40 39 40 42 44 45 46 45 44 42 40 38 37 37 37 37 38 40 41 42 47 51 54 54 53 51 50 49 49 54 63 71 79 85 89 91 92 93 93 93 93 93 93 92 92 92 92 92 92 92 92 93 93 93 92 93 93 93
41 42 43 46 48 49 49 51 53 54 54 54 51 47 42 38 38 40 42 41 40 38 37 35 35 38 44 48 47 44 42 42 43 42 42 40 39 37 35 35 35 35 36 37 39 41 42 43 45 47 49 49 48 48 47 48 51 59 69 75 80 84 87 91 92 93 93 93 92 92 92 92 92 92 92 92 92 92 92 92 93 93 93 93 93 93
41 42 40 42 44 47 49 49 49 48 46 46 46 46 46 42 41 42 46 47 47 47 47 44 43 44 48 52 51 46 42 40 38 36 35 34 33 32 32 32 33 35 36 39 42 44 45 46 46 47 47 46 46 46 46 49 55 63 71 77 80 82 83 87 90 92 92 92 92 91 92 92 92 92 92 92 92 92 92 92 92 93 93 92 92 93
39 39 38 38 40 42 44 46 46 45 43 41 44 49 57 53 50 50 54 54 54 53 52 50 50 51 54 56 52 45 40 36 34 32 31 31 31 31 31 32 33 35 38 41 44 46 47 47 47 48 47 46 45 45 46 51 58 66 72 75 77 78 79 82 85 86 86 86 86 85 85 87 88 89 91 91 92 92 92 92 92 92 92 92 92 93
35 34 33 34 35 36 38 41 43 46 48 49 52 58 63 58 55 55 59 62 61 58 55 52 51 51 55 56 51 44 38 35 32 31 28 30 32 33 33 33 35 38 41 44 46 48 48 47 47 47 46 44 43 43 44 52 59 65 70 72 73 73 73 75 76 76 77 77 77 78 79 81 83 85 87 90 91 92 92 92 92 92 92 93 93 93
27 28 29 29 30 32 36 41 49 55 59 58 59 60 61 58 57 58 61 64 64 62 59 55 51 48 48 49 47 43 38 35 32 30 27 29 33 36 36 36 38 42 46 48 49 49 48 47 45 44 42 41 40 41 45 53 59 63 65 66 66 67 67 68 69 70 71 73 75 77 79 82 84 87 89 90 91 91 92 92 92 92 92 93 93 94
25 26 28 29 29 31 35 43 55 64 67 65 62 60 61 63 64 64 65 66 65 62 59 56 51 45 43 42 41 40 38 36 33 30 27 29 34 39 40 39 40 43 48 50 49 47 46 45 44 42 40 38 39 42 48 56 60 62 63 64 65 65 67 68 70 71 73 75 77 80 82 85 88 90 90 91 91 92 92 92 92 92 92 93 94 94
26 27 29 30 32 34 38 46 56 65 68 67 65 63 63 66 67 68 68 67 66 63 59 54 49 43 40 40 40 40 38 37 34 31 27 28 34 41 43 42 42 43 46 48 47 45 43 43 42 41 39 38 39 44 51 57 60 62 63 65 67 69 71 73 75 77 78 80 81 83 84 87 89 91 91 91 92 92 92 92 92 93 93 93 94 95
26 26 28 31 33 35 40 47 59 70 74 72 72 73 72 69 68 66 66 66 65 63 60 57 52 46 42 42 42 42 40 38 36 32 27 29 35 42 44 43 43 43 44 45 44 44 43 42 41 40 39 39 41 45 53 58 61 64 66 68 71 73 75 77 78 78 79 81 83 84 84 86 89 91 92 92 92 92 92 92 92 93 93 93 93 94
24 24 26 31 34 36 38 44 61 77 86 84 85 86 84 75 69 65 65 65 64 62 60 58 54 52 50 49 48 47 42 41 39 35 30 31 36 40 43 41 41 41 42 42 43 43 43 43 43 42 41 41 43 47 54 60 63 66 68 72 74 76 76 76 76 75 76 77 79 82 84 86 88 90 92 92 92 92 92 92 92 92 92 92 92 93
24 23 25 30 35 39 41 46 58 73 85 88 90 89 85 75 68 65 65 64 63 60 57 55 54 54 53 51 50 47 43 43 41 38 35 35 38 40 40 37 36 37 39 41 43 43 44 43 43 43 43 44 46 50 55 59 62 64 68 71 73 73 73 73 72 73 74 76 78 82 85 86 87 89 92 92 93 93 92 92 92 92 92 92 92 93
23 24 26 29 33 39 46 53 64 76 86 90 91 89 84 74 68 64 63 61 57 54 52 51 52 53 53 49 48 47 45 44 43 41 40 39 41 42 40 37 35 35 36 40 42 44 44 43 43 44 45 46 50 54 58 61 63 66 68 70 72 72 72 72 72 73 74 77 80 83 86 87 88 89 91 92 93 93 93 92 92 92 92 93 93 93
23 25 26 26 31 38 46 56 70 82 88 91 92 90 86 78 72 67 62 56 51 48 48 49 51 52 50 48 48 50 49 48 49 49 46 43 42 43 41 39 37 35 35 38 41 43 44 44 45 46 48 51 54 58 61 64 66 68 70 71 71 72 72 72 73 74 75 78 81 85 88 88 89 90 90 91 91 92 92 92 92 92 93 93 93 94
21 24 27 30 34 38 45 57 73 86 92 92 91 89 84 80 76 70 62 53 48 46 46 49 50 49 46 45 47 50 52 52 55 57 56 53 48 43 43 40 39 38 35 38 40 42 43 44 46 49 51 55 58 61 64 67 68 70 71 72 72 72 73 73 74 75 77 79 82 85 88 89 90 90 90 90 89 89 89 90 92 93 93 93 93 93
21 24 27 31 35 42 50 65 79 89 92 92 89 85 80 78 75 68 60 53 48 46 46 46 45 44 42 41 43 46 51 53 55 58 62 65 57 46 43 42 41 39 36 39 40 41 42 45 48 51 55 59 62 65 67 69 70 71 72 72 72 73 73 74 75 76 78 80 82 84 87 88 89 89 89 89 88 88 87 88 90 92 93 93 93 91
24 26 30 34 40 48 61 79 88 91 91 91 87 83 78 76 70 63 55 51 48 46 45 43 42 41 39 38 39 43 49 52 54 57 62 64 58 50 45 44 43 41 36 39 41 43 43 45 49 53 58 62 66 68 70 71 72 72 72 72 72 73 73 74 75 77 79 80 81 83 84 85 85 86 86 86 86 86 86 87 89 92 93 92 91 88
27 30 34 40 48 58 71 85 90 92 91 90 85 80 76 70 63 55 50 48 46 45 44 41 40 39 38 37 38 41 47 52 54 56 58 58 52 47 45 45 45 43 39 39 41 44 44 47 51 55 61 65 69 71 72 73 73 73 73 73 73 73 73 74 76 77 79 80 81 82 82 83 82 81 81 81 83 84 84 86 89 92 93 91 88 86
32 36 41 48 56 65 74 84 90 91 91 90 85 78 71 62 55 49 46 46 46 45 44 42 41 41 40 39 39 41 46 51 53 54 54 53 51 48 44 43 41 39 38 40 43 46 47 49 52 58 63 68 71 73 74 73 73 73 73 73 73 73 74 75 76 77 78 78 79 80 80 80 79 78 77 77 79 81 82 85 88 91 91 88 85 85
36 40 46 54 61 67 72 80 85 89 91 90 85 76 64 55 49 45 44 46 48 48 47 46 45 44 43 41 41 43 47 52 53 51 50 51 51 50 46 41 38 37 37 41 44 48 50 51 55 60 66 70 72 74 74 74 74 74 74 73 73 73 74 74 75 75 75 76 76 76 77 77 76 75 74 74 75 77 81 83 86 87 86 84 83 84
39 43 50 59 67 73 76 76 79 82 87 87 81 70 58 52 49 49 50 51 52 51 51 50 50 48 46 45 44 44 48 53 53 50 47 49 51 52 48 41 38 38 40 43 46 49 52 54 57 61 67 71 73 74 74 74 73 73 73 73 73 72 72 71 71 71 71 71 71 72 72 73 72 72 71 71 73 75 80 83 85 85 83 81 81 83
42 48 55 65 74 79 79 75 73 75 79 79 72 63 57 54 54 55 56 55 54 54 54 53 51 50 47 45 43 43 47 52 52 49 46 47 49 49 43 39 37 38 43 46 46 48 51 55 58 62 67 71 73 73 73 73 72 72 71 71 70 69 68 66 65 65 65 65 66 67 68 69 70 70 70 70 71 74 78 82 84 84 81 80 80 82
46 53 61 70 78 81 79 73 72 74 74 72 68 63 60 59 59 59 59 58 57 57 56 54 52 49 47 43 42 43 47 50 50 49 46 47 48 46 39 38 38 40 47 52 53 52 50 54 58 62 67 70 72 72 72 71 71 70 68 67 65 63 61 60 59 59 59 60 61 62 64 66 67 68 69 70 71 73 77 81 84 84 81 80 80 80
49 57 66 73 80 82 78 74 74 76 76 72 68 65 63 62 62 62 61 60 60 59 57 55 52 49 46 44 45 48 50 48 49 48 46 49 47 44 39 40 41 43 51 59 65 66 60 56 56 60 66 69 70 70 71 70 69 68 65 62 60 58 57 56 55 55 55 55 56 58 59 62 64 66 68 69 71 73 76 81 84 85 84 82 81 81
54 62 72 77 82 83 77 75 76 78 78 74 70 67 65 65 64 64 63 63 62 60 58 55 51 48 45 44 46 49 49 49 49 49 46 47 44 40 37 41 43 46 52 60 69 76 76 66 60 60 63 67 68 68 69 68 68 66 63 60 57 55 54 54 53 53 53 53 53 54 56 58 61 64 66 68 70 73 76 81 85 87 87 85 84 83
61 71 82 84 84 82 76 76 77 78 78 74 70 67 66 66 66 65 65 64 63 61 58 54 51 47 44 43 43 44 45 48 49 49 46 44 42 39 36 40 44 48 54 60 68 74 79 73 67 62 61 64 66 67 67 66 66 64 62 59 57 55 54 54 53 53 52 52 53 53 54 56 58 61 64 67 69 73 76 81 85 88 89 89 87 86
68 77 87 88 85 81 77 74 75 76 76 72 69 68 68 68 67 67 66 65 63 60 58 53 50 46 44 42 42 42 44 47 48 47 44 42 41 39 39 43 47 52 57 62 67 72 75 72 69 66 64 63 64 65 66 64 63 62 61 60 58 57 56 55 54 54 53 54 54 54 55 56 57 59 61 65 68 72 77 81 84 87 89 91 90 89
70 78 86 87 84 80 76 73 72 73 74 72 70 69 69 69 68 67 66 63 61 59 56 52 48 45 43 43 43 43 44 45 46 45 42 41 41 41 43 48 53 58 63 66 69 72 72 71 70 69 69 64 62 62 64 63 61 60 60 60 60 59 59 58 57 56 55 55 56 56 58 59 60 61 62 64 68 72 76 79 82 85 87 89 90 91
70 76 83 84 82 78 74 70 69 70 73 72 72 71 71 70 69 67 64 61 58 55 53 50 46 43 41 41 43 45 45 44 43 42 41 41 42 45 49 54 59 64 69 72 73 74 74 72 71 71 72 69 65 62 60 60 59 57 57 58 59 60 60 60 60 60 59 58 58 59 59 61 62 64 65 66 68 70 73 76 78 80 82 84 86 88
68 71 76 79 78 74 69 68 69 71 73 73 72 72 71 70 68 64 61 57 54 52 49 47 44 41 39 40 42 44 45 43 42 40 40 42 45 50 56 61 66 70 75 77 78 77 76 74 72 71 72 72 70 67 63 60 57 56 55 56 57 59 60 61 62 62 62 62 61 61 61 62 63 65 67 68 68 69 69 71 73 75 77 78 79 81
68 70 72 72 70 68 65 67 70 74 76 75 73 72 70 68 65 61 57 54 51 49 46 44 41 39 38 39 41 43 43 41 40 39 40 44 50 56 63 67 71 75 78 80 81 80 79 78 76 74 72 71 70 69 68 65 61 58 56 56 57 59 61 62 63 64 64 64 63 62 62 62 63 64 67 69 70 71 70 71 71 72 73 73 74 75
68 69 69 68 67 66 67 71 74 77 79 77 74 71 68 64 60 56 53 51 49 47 44 42 39 37 36 38 40 41 41 39 38 38 41 48 56 63 69 72 74 76 78 80 82 82 81 80 80 79 77 74 71 68 67 68 66 64 60 57 56 58 60 62 63 64 65 65 64 64 62 62 63 64 66 68 71 74 75 75 75 75 75 74 72 72
70 70 69 68 69 70 73 76 78 79 79 75 71 67 63 59 55 51 49 48 46 44 42 39 37 35 35 37 38 39 38 36 35 37 43 52 61 69 74 76 76 77 77 79 81 82 82 82 81 82 82 80 75 71 68 68 69 68 66 63 60 59 60 62 64 65 65 66 66 66 64 63 63 64 65 68 71 75 78 79 80 81 82 82 81 79
73 72 70 71 72 74 77 79 79 78 76 71 67 63 60 56 53 50 47 45 44 42 39 37 35 33 33 35 37 37 35 34 34 38 45 57 67 74 77 77 77 76 76 78 80 81 82 82 82 82 83 81 78 73 69 70 70 71 72 71 68 65 62 64 65 66 65 65 66 67 66 65 64 64 64 66 69 73 77 80 82 84 85 88 89 89
73 73 73 74 75 76 78 79 78 75 70 66 64 62 61 59 56 53 50 46 43 41 38 35 33 32 32 33 34 34 34 32 34 38 48 61 71 77 80 78 77 76 76 77 78 80 82 82 82 82 82 81 78 74 70 69 70 72 74 76 74 70 65 64 65 66 65 65 66 67 68 67 66 65 64 65 66 69 73 77 80 83 86 88 89 90
71 72 74 76 77 77 78 77 75 72 67 64 63 64 63 62 59 55 51 47 43 40 37 35 33 33 33 33 32 31 30 31 33 39 50 64 74 80 81 79 77 76 75 76 77 77 79 80 81 81 81 80 78 76 74 71 71 72 75 78 80 79 75 70 67 66 66 66 67 68 69 69 68 66 65 64 65 67 70 73 76 79 84 86 87 87
72 73 74 75 75 75 75 76 74 70 67 65 65 64 63 61 57 53 48 44 41 39 36 35 34 34 35 34 32 29 27 28 32 39 50 65 75 81 81 79 77 76 75 76 76 75 75 75 77 78 79 79 78 77 76 75 74 75 77 80 82 84 84 79 74 71 69 68 68 69 71 71 69 68 65 64 65 66 68 70 72 74 78 81 84 85
76 75 72 71 71 72 74 73 71 68 66 65 64 62 60 57 53 49 45 42 39 37 36 36 37 37 37 35 32 29 26 26 30 37 49 62 73 79 81 80 78 76 75 76 76 75 74 72 72 73 75 76 77 78 79 79 79 79 80 81 81 81 79 78 77 76 74 72 70 70 72 72 71 69 67 65 65 66 67 69 70 72 74 77 80 82
75 73 69 67 68 70 71 68 66 64 62 62 61 59 56 52 49 46 43 40 38 37 37 38 40 40 39 36 32 29 26 26 28 34 45 57 67 74 78 79 78 77 76 75 75 75 74 73 73 72 73 74 76 78 80 83 84 84 84 83 82 80 77 76 76 76 76 75 73 72 72 72 72 72 71 69 67 66 67 69 71 73 74 76 78 80
67 67 65 65 65 65 64 62 60 60 59 59 58 55 52 49 45 43 41 39 39 39 39 40 41 41 40 36 33 30 27 26 28 33 42 52 61 68 72 74 76 77 77 77 76 76 75 75 75 75 75 76 77 78 81 85 88 89 89 87 85 82 79 76 75 75 75 74 73 72 72 72 73 73 74 73 71 69 68 69 70 72 74 76 78 79
64 64 63 63 62 60 59 58 57 57 57 57 55 52 48 46 43 41 40 40 40 41 42 43 42 40 38 35 33 31 29 28 30 35 42 51 58 63 67 68 69 71 73 75 77 77 78 77 77 77 78 79 81 82 84 87 89 91 90 89 86 83 80 76 73 71 70 69 68 68 69 72 76 78 79 78 76 74 71 70 71 72 73 75 77 78
63 62 61 61 60 59 57 57 57 57 57 55 52 49 45 43 42 42 41 42 43 44 45 44 42 39 36 34 33 32 31 30 33 38 45 53 59 63 65 65 64 64 64 66 68 70 73 75 76 78 79 81 83 85 87 89 90 90 89 87 85 82 79 72 67 64 63 62 61 61 64 69 74 79 83 85 84 80 76 73 72 72 73 74 75 76
62 61 60 60 60 60 59 59 58 57 55 52 48 44 42 41 41 42 42 43 45 46 47 45 42 38 35 34 33 32 32 32 35 40 48 56 61 64 66 65 64 62 60 59 58 58 58 60 65 71 75 78 82 85 87 87 85 83 81 80 78 76 73 66 60 56 56 56 56 57 60 64 70 76 82 86 87 85 80 76 74 72 72 72 72 72
60 60 60 61 61 62 61 59 57 54 51 47 44 42 41 41 42 43 44 45 46 46 46 43 41 37 35 34 34 34 34 35 38 44 51 58 63 66 68 68 67 66 63 60 57 55 53 52 53 57 64 71 75 78 80 80 78 75 72 70 68 66 62 57 52 50 52 54 56 59 61 65 69 75 81 85 88 87 84 80 76 73 72 72 71 70
Wind_Speed
19 19 20 20 19 19 20 21 21 21 21 21 21 21 20 20 19 19 19 20 20 20 21 21 21 22 22 23 24 25 26 27 27 27 28 28 28 28 27 27 27 27 28 28 29 29 29 28 27 26 25 24 24 23 23 23 23 24 24 25 25 25 26 26 26 26 26 26 26 26 26 26 26 26 26 27 27 27 27 27 26 26 25 25 24 23
19 19 20 21 21 21 22 22 22 22 22 23 23 23 23 23 22 22 22 21 21 21 21 21 22 23 23 24 25 26 27 28 28 29 29 29 29 28 27 27 27 27 28 28 28 28 27 26 25 24 23 23 23 22 23 23 24 24 25 25 25 26 26 26 26 25 25 25 24 24 24 24 24 24 24 25 25 25 25 24 24 23 23 23 22 22
21 21 21 22 23 23 23 23 23 23 23 23 24 25 25 25 25 25 24 24 23 22 22 22 23 24 24 25 26 27 27 28 29 29 29 29 29 28 27 27 27 28 28 27 27 26 25 24 22 22 22 22 22 23 23 24 24 24 24 25 25 25 25 24 24 23 23 23 23 23 23 23 22 22 23 23 23 23 23 23 23 23 23 23 24 24
22 23 23 24 24 24 24 24 24 24 24 24 25 25 26 26 26 25 25 24 24 23 23 23 24 25 25 26 26 27 27 28 28 28 28 28 28 27 27 27 26 26 26 25 25 24 23 22 21 21 21 22 22 23 23 24 24 24 24 24 24 24 23 23 22 22 22 22 22 22 22 22 22 22 22 22 23 23 23 23 23 23 24 25 26 26
23 23 24 24 24 24 24 24 24 25 25 25 25 26 26 26 26 25 25 24 24 24 24 24 24 25 25 26 26 26 26 26 26 26 26 25 25 24 24 24 23 23 23 23 23 22 21 21 21 21 22 22 23 23 24 24 25 25 25 25 24 23 22 22 22 22 21 21 21 21 22 22 22 22 22 22 23 23 23 23 23 24 24 25 26 26
23 23 24 24 24 24 25 25 25 25 26 26 26 26 26 26 26 26 26 25 25 25 25 24 24 24 25 25 25 25 25 24 24 23 23 22 22 22 22 22 21 22 22 22 22 21 21 21 22 22 23 23 24 24 25 25 26 26 26 25 24 23 22 21 21 21 21 21 21 21 21 22 22 22 23 23 23 23 24 24 24 24 25 25 26 26
23 23 23 24 24 25 25 25 25 26 27 27 28 27 27 27 27 27 26 26 27 27 26 26 25 24 24 24 24 24 23 22 22 21 21 21 20 20 20 20 21 21 21 21 21 21 21 22 22 23 23 24 24 25 26 26 26 26 25 24 23 22 21 20 20 20 20 21 21 21 21 22 22 23 23 23 24 24 24 24 24 25 25 25 25 26
23 23 23 24 24 25 25 25 25 25 26 27 28 28 28 28 28 27 27 27 28 28 29 28 27 25 23 23 23 23 22 22 21 20 20 20 20 20 20 20 20 20 21 21 21 22 22 23 23 23 24 24 25 25 26 26 26 25 23 22 21 21 20 20 20 20 20 21 21 21 22 22 23 23 23 24 24 24 24 24 25 25 25 25 25 25
23 24 24 24 24 24 25 25 24 24 25 26 27 28 29 29 30 30 30 29 29 29 29 29 28 26 24 22 21 21 21 20 20 20 21 21 21 21 21 21 21 21 21 21 21 22 22 23 23 23 24 24 25 25 25 25 24 22 21 20 20 20 20 20 20 20 20 21 21 22 22 22 23 23 23 23 23 24 24 24 24 24 24 25 25 25
23 23 24 24 24 23 24 24 24 24 24 25 25 26 27 29 31 32 33 32 31 30 29 28 27 26 24 22 21 20 20 19 19 19 20 20 21 21 21 21 21 21 21 21 21 21 21 22 22 23 23 24 24 24 24 22 21 20 19 19 19 19 20 20 20 20 20 21 21 21 21 22 22 22 22 22 23 23 23 23 23 23 24 24 24 24
23 23 23 23 23 23 23 23 23 24 25 25 26 26 27 28 30 32 33 33 33 31 29 27 25 24 23 22 21 20 20 20 20 19 20 20 21 21 21 21 21 21 21 21 20 20 20 20 21 21 22 22 22 22 21 20 18 18 18 19 19 20 20 20 20 20 21 21 21 21 21 21 21 22 22 22 22 22 22 22 23 23 23 23 24 24
21 22 22 22 23 23 23 23 24 25 26 27 27 28 27 28 29 30 31 32 32 31 29 26 23 21 20 20 21 21 21 21 21 22 22 22 22 22 22 22 21 21 21 20 20 19 19 19 19 19 20 20 20 20 19 18 17 18 18 19 19 20 20 20 20 21 21 21 21 21 21 21 21 22 22 22 22 22 22 22 23 23 23 23 23 23
21 21 21 22 22 23 24 24 25 25 26 26 26 26 26 28 29 30 30 30 29 28 27 25 23 20 19 18 19 21 22 22 23 24 25 25 25 24 24 23 23 22 21 20 18 17 17 17 17 18 18 19 19 19 18 17 17 17 18 19 19 20 20 20 20 21 21 21 21 21 21 21 22 22 22 22 22 23 23 23 23 23 23 23 23 23
21 21 22 22 23 24 24 24 24 24 24 24 25 25 26 27 28 29 30 29 28 25 23 22 21 20 18 19 20 21 23 24 25 26 26 26 26 25 25 25 24 23 21 19 17 16 16 16 16 17 17 18 18 18 18 17 17 17 18 18 19 19 20 20 20 21 21 21 21 21 22 22 22 22 22 22 23 23 23 23 23 23 23 23 23 23
21 22 23 24 24 24 24 23 22 22 22 23 24 25 26 27 28 28 29 28 27 24 22 21 20 19 18 19 21 23 25 26 27 28 28 27 26 26 26 26 25 23 20 18 16 15 14 15 15 16 17 18 18 18 18 17 17 17 17 18 19 19 20 20 21 21 22 22 22 22 22 22 22 22 22 22 23 23 23 23 23 23 23 23 23 23
22 22 23 23 24 24 23 22 21 21 22 23 24 25 26 27 28 28 28 27 25 23 22 21 21 20 20 19 21 24 26 28 29 30 30 28 27 26 27 27 25 23 20 17 16 15 14 14 15 16 17 18 18 18 17 17 17 17 18 18 19 19 20 21 21 22 22 22 22 22 22 22 22 22 22 22 23 23 23 23 23 23 23 23 23 23
21 22 23 23 23 23 23 21 20 19 21 22 23 24 25 26 27 27 26 24 23 22 21 20 21 22 23 23 23 25 27 29 30 31 31 30 28 27 27 27 25 23 20 17 16 15 15 15 16 16 17 18 18 18 17 17 17 18 19 19 20 21 22 22 22 23 23 23 23 23 23 22 22 22 22 22 22 23 23 23 23 23 23 23 23 23
21 21 22 22 22 22 22 21 19 19 20 21 22 23 24 25 25 25 23 22 21 20 20 19 19 21 24 25 26 26 29 30 31 32 32 31 29 28 27 27 25 23 20 18 17 16 15 15 15 16 16 17 17 17 18 18 19 19 20 21 22 23 23 24 24 23 23 23 23 23 23 23 22 22 22 22 22 23 23 23 23 23 23 23 23 23
21 21 21 21 22 22 21 20 19 19 19 20 21 22 23 24 24 23 21 20 19 18 18 18 19 21 23 25 26 27 29 30 31 32 33 32 30 29 28 27 25 23 21 19 17 16 15 14 14 15 16 16 17 17 18 18 19 20 21 22 23 24 24 24 23 23 22 22 22 22 22 23 22 22 22 22 23 23 23 23 23 23 22 22 22 23
20 21 21 21 22 21 21 19 18 18 17 18 19 20 23 24 23 21 19 18 17 17 17 18 20 21 24 25 26 27 29 30 32 32 33 33 31 30 29 28 27 25 22 20 18 16 14 14 14 15 15 16 16 17 18 18 19 20 22 22 23 23 23 23 23 22 21 21 21 22 22 22 23 23 22 22 23 23 23 23 23 22 22 22 23 23
20 20 20 20 21 20 20 18 17 16 15 16 17 20 22 23 22 19 17 16 16 16 17 19 20 22 25 26 27 27 29 30 31 32 33 33 32 31 30 30 29 27 25 21 18 15 14 13 14 14 15 16 16 17 18 19 20 21 22 22 23 23 23 22 22 21 21 21 21 21 22 22 23 23 23 22 22 22 23 22 22 22 22 22 23 23
19 20 20 20 20 19 18 17 16 15 14 15 17 20 22 23 21 18 16 16 16 17 19 20 21 23 26 27 27 27 28 29 30 31 32 32 32 31 31 31 30 29 27 23 19 15 13 13 14 14 15 16 16 17 18 19 20 21 22 22 22 22 22 21 21 21 21 21 21 21 22 22 22 22 23 23 22 22 22 22 21 21 21 22 23 24
18 19 19 19 18 17 16 15 14 13 13 14 17 19 20 20 18 17 16 16 18 19 20 21 22 24 26 28 28 28 28 29 30 31 31 30 31 32 32 32 31 30 29 25 20 16 14 14 14 15 15 16 16 17 18 19 20 21 21 21 21 21 21 20 20 20 21 21 21 21 22 22 22 22 23 23 23 23 23 21 20 20 21 23 24 25
18 18 18 17 16 15 14 13 13 12 12 14 16 17 17 16 15 14 15 16 18 19 20 21 22 24 26 28 29 28 27 28 30 31 30 30 31 31 32 32 32 31 30 27 22 17 15 14 15 15 16 16 16 17 18 19 19 20 20 20 20 20 20 20 20 20 21 21 21 22 22 22 22 23 23 23 24 24 23 22 20 20 22 23 25 25
17 17 16 15 13 12 11 11 10 10 12 14 16 15 14 12 12 12 13 15 17 19 20 22 24 27 29 30 31 29 28 29 30 30 30 31 31 31 31 32 32 32 31 28 23 19 16 15 16 16 16 16 16 16 17 18 18 19 19 19 19 19 19 20 20 20 21 21 22 22 23 23 23 23 23 23 23 23 23 21 20 20 22 23 24 24
17 16 15 13 11 10 9 8 7 7 10 13 14 14 12 11 11 12 14 17 19 21 23 25 27 29 30 32 32 31 29 29 29 30 30 31 31 31 31 32 33 33 32 29 25 21 18 17 17 17 17 16 16 16 16 17 17 18 18 18 19 19 19 20 20 21 21 22 22 23 23 23 23 23 23 22 22 22 22 21 20 20 22 23 23 23
16 15 13 11 10 9 8 7 6 7 8 10 12 12 11 11 12 13 16 18 21 23 25 27 29 30 32 33 32 31 29 28 29 30 30 30 30 30 31 32 33 33 33 31 27 23 20 19 19 18 18 16 16 15 16 16 16 17 17 18 18 19 19 20 20 21 21 22 22 23 23 23 23 22 22 21 21 21 21 20 20 21 22 22 22 22
15 14 13 11 10 9 8 8 8 8 9 10 10 11 12 13 14 16 18 20 21 23 25 27 28 30 31 32 32 31 29 28 28 30 30 29 29 29 30 32 32 33 33 32 29 25 22 20 20 19 18 17 16 15 15 16 16 17 17 18 18 19 19 20 20 21 21 22 22 22 22 22 21 21 20 20 20 20 20 20 20 21 22 22 22 21
15 13 12 10 9 9 9 9 10 10 10 10 10 11 12 14 16 18 19 20 22 23 25 26 27 29 30 32 33 31 29 27 28 30 30 29 29 29 31 31 32 33 33 33 30 26 23 21 20 20 19 18 17 16 16 17 17 18 18 19 19 19 20 20 21 21 21 21 21 21 21 21 20 20 19 19 19 19 19 19 20 21 22 22 21 21
13 11 10 9 8 7 8 10 11 11 11 10 11 12 14 15 17 18 19 21 22 24 25 26 27 28 30 32 33 32 29 28 28 29 29 29 29 30 31 31 31 32 32 33 32 29 26 22 20 20 19 18 17 17 18 18 19 20 20 20 20 20 21 21 21 22 22 22 22 22 22 21 20 20 19 19 19 19 18 19 19 20 21 22 21 21
11 9 8 7 6 6 7 9 10 11 11 11 12 13 14 15 16 18 19 21 22 24 25 26 27 28 29 30 30 29 28 28 28 29 29 28 28 29 30 31 31 31 30 30 29 29 27 24 21 19 19 18 18 18 19 20 21 21 22 22 22 22 22 22 23 23 23 23 23 23 23 23 22 21 20 20 19 18 18 18 19 20 21 21 21 22
10 8 7 6 5 5 6 7 9 10 10 10 11 13 14 15 16 17 19 20 22 24 25 27 28 29 29 29 28 27 27 27 27 27 27 27 27 28 29 29 30 30 29 28 27 25 24 26 24 20 19 19 19 19 20 21 22 22 22 22 22 22 23 23 24 24 24 24 24 25 25 25 24 23 22 21 20 19 18 17 18 18 19 20 21 21
8 6 5 4 4 3 4 6 7 8 8 9 10 12 13 14 15 16 18 20 21 23 25 27 28 29 30 29 28 27 26 26 25 25 25 26 26 27 28 28 29 29 29 28 27 25 23 26 25 22 20 20 20 20 21 22 22 22 22 22 22 22 23 24 24 24 25 25 25 25 25 25 25 25 23 22 21 19 18 17 17 17 17 18 19 20
5 3 3 2 2 2 3 5 6 7 7 8 10 11 12 13 15 16 17 19 21 23 25 26 28 29 30 30 29 28 26 25 24 24 24 25 25 26 27 28 28 29 29 28 27 26 25 25 25 24 22 20 20 21 22 22 22 22 22 21 22 22 23 24 25 25 25 25 25 25 25 25 25 25 25 24 22 20 19 18 17 16 16 16 17 18
4 2 0 1 1 1 2 4 5 6 7 8 10 11 12 13 15 16 17 18 20 22 24 26 27 28 29 29 28 27 26 24 23 23 23 24 25 25 26 27 27 28 28 28 27 27 26 24 24 24 24 22 21 21 22 22 23 22 22 21 21 22 23 24 25 25 26 26 26 25 25 25 26 26 25 25 23 21 20 18 17 17 16 15 15 16
3 2 1 2 2 2 3 4 5 6 7 9 10 11 12 13 14 16 17 18 19 21 22 24 26 27 27 27 26 25 25 23 23 22 23 23 24 24 25 26 26 26 26 26 26 25 25 24 23 22 23 23 23 22 22 22 23 23 22 22 22 23 24 24 25 26 26 27 27 27 27 26 26 26 25 25 24 22 20 19 19 18 17 16 15 15
1 1 1 1 1 2 3 4 5 7 9 10 11 12 13 14 15 16 17 19 20 21 21 23 24 25 26 26 25 24 23 22 22 22 22 23 23 24 24 25 25 25 25 24 24 23 23 23 23 22 22 23 23 24 24 24 23 23 23 24 24 24 24 24 25 26 27 27 28 28 28 28 27 26 25 25 24 23 22 21 20 20 19 18 17 16
2 2 2 2 2 3 4 5 7 9 11 12 12 13 13 14 15 17 18 19 20 21 22 22 23 24 25 24 23 22 21 20 20 21 21 22 23 23 24 24 24 24 23 23 22 21 21 21 22 22 22 22 23 23 25 25 26 25 25 24 24 25 25 25 25 26 27 27 28 28 29 29 29 28 27 26 25 24 23 22 21 21 21 20 19 18
4 4 5 5 6 6 7 8 10 11 12 13 14 14 14 14 15 17 18 20 21 22 22 23 23 24 24 23 22 20 19 19 20 20 21 21 22 23 23 23 23 23 22 21 20 19 19 19 20 21 22 23 23 23 24 25 26 27 26 26 25 25 25 25 26 27 27 28 28 29 29 30 30 30 29 28 27 26 24 23 22 22 22 22 22 21
6 7 8 9 9 9 10 11 11 12 13 13 14 14 15 15 16 17 18 19 20 21 22 23 23 23 23 22 21 20 19 19 19 20 20 21 22 22 22 23 23 22 21 20 18 17 17 17 18 19 20 22 23 24 25 25 26 27 28 28 28 27 27 27 27 27 28 28 29 29 30 30 30 30 30 29 29 28 26 24 22 21 21 21 22 22
8 9 10 10 10 10 11 11 12 13 14 14 15 15 16 17 18 19 19 20 21 22 22 23 23 22 22 21 20 19 19 19 19 20 20 21 21 22 22 22 22 21 20 19 17 15 15 16 17 18 19 21 23 24 25 25 26 27 28 29 30 30 29 28 28 28 28 28 29 29 30 30 30 30 30 30 29 28 27 26 24 22 20 20 20 21
8 9 10 11 10 10 11 11 12 13 13 14 15 17 18 19 20 21 22 23 24 24 25 25 25 24 22 20 19 19 19 19 20 20 20 21 21 21 21 21 21 20 19 18 16 14 13 14 15 16 18 20 22 23 25 25 26 27 28 29 31 31 31 30 29 29 29 29 29 29 29 30 30 30 30 30 30 29 28 27 25 23 21 20 19 19
9 10 10 10 10 10 10 11 11 12 13 14 16 17 19 20 21 22 24 25 26 26 27 27 26 26 24 21 19 19 19 20 20 20 20 21 21 21 21 20 20 19 18 17 16 14 13 13 14 15 17 19 21 23 25 26 27 27 28 29 31 32 33 33 32 30 30 29 29 29 29 29 29 30 30 30 30 30 29 28 26 23 21 20 19 19
9 10 9 9 9 9 10 10 11 12 13 14 16 17 18 20 21 23 24 25 26 27 27 27 27 26 24 22 20 19 19 20 20 20 20 20 20 20 20 19 19 18 17 16 16 15 14 14 14 15 17 19 21 23 25 26 27 28 29 29 30 31 32 33 33 32 31 31 30 29 29 29 30 30 30 30 30 30 29 29 27 25 23 21 20 19
9 8 8 8 9 9 10 11 11 12 13 14 16 17 19 20 21 23 24 25 26 26 27 27 26 26 25 23 21 20 19 20 20 20 20 20 20 19 19 19 18 18 17 16 16 16 16 16 16 17 18 19 21 23 25 26 28 29 30 30 30 31 31 32 32 33 33 32 31 30 30 30 30 31 31 31 30 30 30 29 28 26 24 23 21 20
8 8 8 8 9 10 11 11 12 13 14 15 16 18 19 20 21 23 24 25 26 26 26 26 25 25 24 24 23 22 21 21 20 20 20 19 19 19 18 18 17 17 16 16 16 16 16 17 17 19 20 21 22 23 25 26 27 29 30 30 31 32 32 32 32 32 32 32 32 31 30 30 31 31 32 32 32 31 31 30 29 28 26 25 23 22
9 8 8 9 9 10 11 12 13 14 15 16 17 18 20 21 22 23 24 24 25 25 25 25 24 23 23 23 24 24 24 23 23 21 20 20 19 19 18 17 16 16 15 15 15 15 16 16 17 19 20 22 23 25 25 26 26 28 29 30 32 33 33 34 33 33 32 32 32 31 31 31 32 32 32 33 33 32 32 31 30 28 27 26 24 23
10 10 9 9 10 11 12 13 14 15 16 17 18 19 20 21 23 23 24 25 25 25 25 25 24 23 22 23 24 24 25 25 24 23 22 21 20 20 19 18 17 16 15 14 14 14 14 14 15 17 19 21 23 25 26 26 26 27 29 30 32 33 34 35 35 34 34 33 32 32 32 31 32 32 33 33 33 33 33 32 31 29 28 27 25 24
12 11 10 10 10 11 13 14 15 15 16 17 18 19 20 21 22 23 24 24 25 25 25 25 24 23 23 23 24 25 25 25 24 23 23 22 22 21 20 20 19 18 17 16 15 14 13 13 14 15 17 20 23 26 28 28 28 28 29 31 32 33 34 35 35 35 35 34 33 33 32 31 31 31 31 32 33 34 33 33 32 31 29 27 26 25
13 12 11 11 12 13 14 14 15 16 17 18 19 20 20 21 22 23 23 24 24 24 24 24 24 24 24 24 25 25 25 25 24 24 23 23 23 22 22 22 22 21 21 20 19 18 17 17 16 17 18 21 24 27 29 30 30 30 31 32 32 33 34 35 35 35 35 35 34 33 33 32 31 30 30 31 32 33 33 33 33 31 30 28 27 25
13 13 13 13 13 14 14 15 16 17 18 19 20 20 21 22 23 23 23 23 23 23 23 23 23 24 25 25 25 26 25 25 24 24 23 23 23 23 24 24 24 25 25 25 25 26 26 25 25 23 22 22 25 27 28 29 31 31 32 32 32 33 33 34 35 35 34 34 34 33 33 32 31 30 29 29 30 32 33 33 33 32 30 29 27 26
Wind_Direction
313 314 316 317 320 322 324 325 326 328 329 329 329 329 327 327 326 326 325 325 324 323 322 322 323 323 323 322 322 322 322 321 320 320 319 318 317 317 316 315 314 313 312 311 312 313 314 316 318 319 320 320 319 317 316 314 313 312 312 312 312 311 311 311 312 312 313 313 313 313 312 311 310 310 309 308 308 309 310 311 312 313 314 313 311 311
313 314 315 316 319 323 324 326 327 328 328 328 327 327 325 324 324 324 325 325 325 324 323 322 321 321 321 321 320 320 319 318 317 317 316 315 315 315 314 313 313 313 313 313 314 316 318 320 322 323 322 320 318 317 316 316 315 314 314 313 312 311 311 312 314 315 316 317 317 317 316 314 313 312 311 310 309 310 311 313 315 315 315 313 314 315
314 315 316 318 321 323 325 326 327 328 328 327 326 325 325 325 325 326 328 329 328 327 325 323 322 321 320 320 319 317 316 315 315 314 314 314 314 314 313 313 313 313 315 316 318 320 323 325 325 324 322 321 319 319 318 317 316 315 314 313 312 312 314 316 318 319 321 321 321 320 319 318 316 315 314 313 312 312 313 315 315 315 314 313 314 314
316 317 319 321 323 325 326 327 327 327 327 326 326 325 326 327 328 330 331 331 330 328 326 325 323 322 321 320 319 317 316 315 315 315 315 315 315 315 316 316 317 318 319 320 322 324 326 326 325 324 323 322 321 320 319 317 316 314 313 313 314 316 318 320 322 323 323 323 322 321 320 319 318 317 316 315 313 313 313 314 313 312 312 312 312 312
319 321 322 324 326 327 327 328 328 328 328 328 328 328 329 331 332 333 333 333 332 330 329 328 327 326 325 324 322 320 319 318 318 319 319 319 320 321 322 323 324 325 324 324 324 325 325 324 323 323 322 322 320 319 317 315 314 314 314 316 318 320 322 323 323 323 323 322 322 321 319 318 318 317 316 315 314 313 312 311 311 311 311 311 311 311
322 324 325 326 327 328 328 330 331 331 331 331 332 332 333 334 334 335 335 335 334 333 333 332 332 331 330 328 326 325 324 325 325 326 326 328 329 330 331 331 330 329 328 326 326 325 323 323 322 321 320 319 318 316 315 314 314 315 317 319 321 324 325 325 324 323 322 321 321 320 319 317 317 316 315 315 314 314 313 312 311 311 312 311 310 310
326 326 327 328 328 329 331 333 334 335 335 334 334 335 335 335 335 336 337 337 337 337 337 337 337 337 335 332 330 330 332 334 335 336 337 338 338 338 337 335 333 331 329 327 326 324 322 321 321 320 319 318 316 315 315 315 316 318 320 322 324 325 325 326 325 324 322 321 320 319 318 317 316 316 315 315 314 313 312 312 312 312 311 311 311 310
328 328 329 330 331 332 334 335 337 337 336 335 335 335 335 335 336 337 339 340 340 340 340 341 342 342 342 339 337 338 341 344 346 347 347 346 345 343 340 337 335 332 330 328 325 322 320 319 319 318 317 317 316 315 316 317 318 320 323 325 326 326 326 326 326 324 322 321 320 319 317 317 316 315 314 314 314 313 312 311 311 311 310 310 310 309
330 331 332 333 334 334 335 336 337 337 336 335 334 335 335 336 337 338 340 342 343 344 343 344 345 346 347 347 347 348 350 353 355 354 353 350 347 344 341 338 335 333 330 328 325 323 320 318 317 317 316 315 315 316 317 319 321 323 327 329 329 329 328 328 327 325 323 322 320 319 318 317 317 316 315 314 314 314 313 312 312 311 311 310 310 310
334 334 335 335 336 335 335 335 335 335 335 334 334 335 337 338 339 340 341 343 345 346 346 348 349 349 350 351 355 358 359 0 1 359 356 352 347 343 340 337 335 333 332 330 328 326 323 321 319 317 317 317 318 319 321 323 325 328 331 332 331 330 330 329 328 327 325 323 322 321 320 319 319 318 317 316 316 315 315 314 314 314 314 313 313 314
336 336 337 336 336 335 335 335 334 334 334 334 336 338 340 341 342 342 342 343 344 346 348 351 354 354 353 353 356 1 3 3 2 1 358 352 347 342 339 337 336 336 336 335 333 331 327 324 322 321 320 321 323 324 326 328 331 335 336 335 334 332 331 331 330 329 328 326 325 325 324 323 323 322 321 321 321 320 320 319 319 318 318 318 318 318
336 336 336 336 335 335 335 335 335 335 336 337 340 343 343 343 343 344 343 343 344 346 348 353 358 1 359 355 357 1 3 1 359 358 355 351 347 343 341 340 341 342 342 341 339 335 331 329 327 326 325 327 328 330 332 335 339 341 340 338 336 335 334 333 332 332 331 331 330 330 329 328 328 327 327 326 326 325 325 324 324 323 322 322 322 322
336 335 335 335 335 336 337 337 337 338 340 341 343 344 343 342 343 345 345 345 345 347 349 354 0 5 5 0 359 359 359 358 356 354 353 352 350 348 346 347 349 351 350 348 344 340 336 333 331 330 331 332 334 336 339 343 346 345 341 339 337 336 336 336 335 334 334 333 333 332 332 331 331 331 330 330 329 328 328 327 326 325 324 324 323 322
336 335 335 336 337 338 339 340 341 342 342 343 343 342 341 343 345 346 346 346 346 348 351 356 4 9 10 4 360 358 356 355 353 353 353 355 355 354 353 354 356 357 356 354 350 346 341 338 336 335 336 337 339 342 345 349 349 346 341 337 335 334 334 335 334 333 333 333 333 333 333 333 333 332 332 331 330 329 329 328 327 326 326 325 324 323
337 337 336 337 337 339 340 342 343 343 342 342 342 342 343 345 347 347 346 346 347 350 354 359 6 13 15 8 2 357 355 353 353 353 354 358 360 359 358 358 360 1 1 360 357 352 346 343 340 339 340 342 344 346 349 351 349 345 340 337 335 334 333 332 332 332 332 333 333 333 333 334 334 334 333 332 331 330 330 329 328 328 328 327 325 324
338 337 337 337 337 339 341 342 343 342 341 341 342 344 346 346 346 347 347 347 349 353 357 0 5 10 13 10 4 359 356 354 354 353 354 360 3 3 2 0 2 5 7 7 3 358 351 347 344 343 344 345 347 349 351 350 348 344 341 339 338 336 336 335 335 336 338 338 336 335 334 334 335 335 334 333 332 331 331 330 330 329 328 327 325 324
338 337 336 336 337 339 341 343 344 343 342 343 344 346 346 346 346 347 348 349 352 355 360 3 4 4 5 6 4 1 358 356 354 354 355 1 4 5 4 2 4 10 14 13 8 2 356 352 348 347 347 347 348 349 351 351 349 346 343 342 341 340 340 340 341 342 343 342 339 337 335 334 335 336 335 334 333 333 332 331 330 329 328 326 325 324
338 337 337 336 338 339 339 343 345 345 345 345 345 345 344 345 347 348 350 353 356 358 1 3 4 3 1 3 2 1 360 357 355 354 356 1 5 6 5 4 7 13 17 16 11 6 1 357 353 350 349 348 348 350 351 351 348 346 344 342 341 341 341 342 343 343 344 343 340 338 336 334 335 336 336 336 335 333 332 331 330 328 327 325 324 324
337 337 337 337 337 338 339 343 346 347 347 346 344 341 340 343 347 351 354 357 360 1 2 3 4 4 3 3 2 1 1 358 356 355 356 360 4 6 5 6 10 16 20 19 14 8 4 360 356 353 350 349 350 350 351 349 346 344 342 341 340 340 340 341 342 342 342 342 340 338 336 335 334 335 336 336 335 333 332 330 329 327 326 326 325 325
337 336 337 337 337 338 341 345 349 351 350 345 340 337 336 341 348 354 359 2 3 4 4 5 5 4 4 4 4 2 1 359 357 355 356 358 2 4 4 5 10 16 19 19 16 11 7 3 358 355 352 351 351 351 349 346 343 341 340 339 339 339 339 340 341 342 342 341 340 337 335 334 334 335 335 335 333 332 330 329 328 327 327 327 327 325
337 336 336 337 338 339 343 349 356 359 353 343 335 333 335 340 347 355 2 5 6 6 7 7 6 4 4 5 5 4 1 360 357 355 355 357 0 3 3 4 8 12 14 16 17 15 12 7 2 358 355 353 352 350 347 344 341 340 339 339 339 339 340 341 341 341 341 340 338 336 335 334 334 334 333 332 331 330 328 327 327 328 329 328 327 323
337 336 336 337 339 342 346 356 4 4 352 339 333 333 336 340 346 354 2 6 8 8 8 7 6 5 5 6 6 5 3 360 357 354 353 352 355 0 3 3 4 7 9 12 15 17 17 12 7 3 359 356 352 349 345 342 340 339 339 339 340 341 341 342 341 341 340 339 336 334 333 333 332 332 332 331 329 328 327 326 327 329 330 328 324 318
338 337 337 339 342 347 354 6 12 8 350 336 332 333 338 342 348 355 2 6 8 7 6 5 5 4 5 6 7 6 3 0 358 355 353 348 350 357 2 2 1 1 5 10 14 16 19 17 13 7 3 358 353 349 345 342 341 340 340 341 341 342 343 343 342 341 339 337 335 332 331 331 331 331 331 330 330 328 328 328 329 331 331 325 319 315
340 340 340 343 348 356 6 16 17 5 344 333 331 335 342 347 352 358 2 6 6 5 3 2 2 3 4 6 7 6 4 0 358 355 352 347 348 354 360 360 357 357 1 8 12 15 19 20 17 12 7 1 355 349 345 343 342 342 342 343 344 344 345 344 343 341 338 336 333 332 330 329 329 330 330 331 330 329 329 330 333 334 330 322 317 318
343 344 345 349 356 6 17 27 22 3 343 332 333 341 350 356 359 1 4 5 5 3 1 1 1 2 3 4 6 6 4 1 358 354 350 347 349 353 358 358 355 353 357 5 11 14 18 20 19 15 10 4 357 351 347 346 345 345 346 346 347 347 347 346 344 341 338 335 333 331 330 330 329 330 331 331 331 330 330 332 334 333 327 321 320 325
346 347 349 355 3 13 23 31 27 7 350 339 342 352 3 6 6 5 7 7 6 4 2 2 2 1 2 3 4 4 4 1 357 354 350 348 348 352 356 358 355 353 354 1 8 13 17 20 19 15 11 6 0 355 352 350 350 350 350 350 350 349 348 346 344 341 338 335 333 332 331 331 330 330 330 331 331 331 331 332 333 330 324 322 325 331
348 349 351 356 2 11 21 26 22 10 358 351 354 2 10 10 9 10 11 9 7 5 5 3 1 360 360 360 1 2 2 359 355 352 351 349 349 350 353 356 356 354 354 358 3 9 13 16 17 16 12 8 4 360 357 356 355 355 354 353 352 350 349 346 344 341 339 336 335 333 332 331 331 331 331 333 333 332 332 333 332 329 325 326 330 333
349 350 352 355 1 9 15 16 13 6 359 356 1 9 13 12 13 14 12 9 7 6 6 4 1 358 357 356 358 360 1 358 354 351 351 350 349 349 351 354 355 355 354 355 359 6 11 13 14 14 13 11 8 5 3 1 360 359 357 355 353 351 350 348 346 344 342 340 338 336 335 334 334 334 334 335 334 334 334 333 332 329 328 330 332 332
349 351 355 0 6 10 11 9 5 2 360 1 9 16 19 17 16 15 11 8 6 5 4 3 1 358 356 355 356 358 360 357 353 351 351 350 349 350 351 353 354 354 354 353 356 3 9 12 13 12 13 12 11 9 7 5 3 1 360 358 355 353 352 351 351 349 348 346 344 342 341 340 339 340 340 340 339 337 336 335 333 331 331 332 333 332
348 352 358 5 10 12 10 8 6 6 8 12 20 25 25 22 18 15 10 7 5 3 2 1 360 358 356 355 355 356 357 356 353 350 350 350 349 349 351 352 352 353 353 352 353 356 2 10 13 12 12 13 13 12 10 7 5 2 1 359 357 356 356 356 357 357 356 354 352 350 348 347 347 346 346 345 343 341 339 337 335 333 333 334 333 333
346 350 359 8 16 18 14 12 12 15 19 22 27 29 28 24 20 15 10 7 4 2 360 359 358 358 357 356 354 353 353 354 352 350 350 349 348 348 350 350 350 351 351 350 349 348 350 359 9 16 16 16 15 14 12 9 6 3 1 359 358 358 359 0 1 2 2 1 359 357 354 353 352 351 350 349 346 344 341 339 337 336 335 335 335 335
343 348 0 14 23 26 19 17 19 22 25 27 29 30 28 24 19 14 10 6 3 0 358 357 356 356 356 356 355 352 352 352 351 349 349 348 347 348 349 348 348 348 349 348 346 342 339 344 356 11 18 18 16 14 12 10 8 5 2 0 359 360 1 2 4 5 6 5 3 1 358 356 354 354 353 351 349 346 344 342 341 339 338 337 337 336
341 347 3 18 27 28 21 19 21 24 26 27 28 28 26 23 18 14 10 6 2 359 357 356 355 355 355 354 354 354 354 352 350 349 348 347 347 347 348 348 347 346 346 346 345 342 338 339 347 358 9 16 16 14 11 10 9 7 4 2 1 1 2 3 4 5 6 6 5 4 1 359 357 356 354 352 351 349 347 345 343 341 340 340 338 337
335 341 5 25 32 21 15 16 17 20 23 25 26 25 23 20 16 12 8 4 1 359 357 356 355 354 353 352 352 353 353 352 350 349 348 348 347 346 347 346 345 344 344 343 343 342 341 342 346 351 358 8 13 13 10 8 8 8 7 5 4 3 3 3 4 5 5 6 6 5 4 2 1 359 357 355 354 352 349 347 344 342 341 341 340 338
321 309 270 181 203 309 349 1 9 17 23 24 24 21 19 16 12 8 5 2 360 358 356 355 354 354 353 352 351 351 352 351 350 350 349 348 347 346 345 344 343 342 341 341 341 341 340 344 348 351 353 360 7 10 9 6 6 7 9 9 7 6 5 4 4 3 3 3 4 4 5 5 4 2 0 358 357 355 352 348 345 343 342 342 341 340
313 287 243 224 240 280 320 345 5 19 24 24 21 18 15 11 7 4 1 358 357 356 355 354 353 352 352 351 350 350 350 351 351 350 350 349 347 345 344 342 341 340 338 338 339 339 340 343 348 351 353 355 359 3 6 5 5 6 8 10 10 8 7 5 3 2 1 1 1 1 2 3 4 4 3 1 359 356 353 350 347 344 343 342 341 341
322 302 291 281 288 312 337 359 17 25 24 21 17 13 10 6 2 359 356 355 354 353 353 353 353 352 351 350 350 350 350 351 352 352 351 350 347 345 343 341 340 339 336 335 336 338 340 342 346 350 352 353 354 356 359 1 2 4 6 9 10 9 7 5 3 1 360 359 358 358 358 359 0 2 3 2 360 357 354 352 349 346 344 343 342 342
30 41 42 32 22 18 22 28 30 27 22 16 12 8 4 359 356 354 353 352 352 351 351 352 352 352 351 350 350 350 351 353 353 354 352 351 348 345 343 341 339 338 336 335 336 338 339 341 343 346 349 351 353 354 355 356 358 360 2 5 8 8 7 5 3 1 359 357 356 355 355 355 356 357 359 1 0 358 356 353 351 348 346 345 344 345
44 44 44 42 42 41 39 35 31 25 19 12 7 2 357 354 352 351 351 351 351 351 351 351 352 352 351 350 351 352 353 355 356 356 354 352 348 345 343 340 339 338 338 338 339 339 340 340 340 341 343 346 348 351 354 355 355 356 358 0 3 6 6 5 3 0 358 356 355 354 353 353 353 353 355 357 359 359 358 356 353 350 348 346 346 346
43 39 38 40 42 41 36 31 24 18 12 7 2 357 353 350 348 348 349 350 350 350 350 350 351 351 351 351 353 355 357 358 359 358 356 354 350 347 343 341 340 340 341 342 343 342 341 339 339 340 341 341 343 346 350 352 353 354 355 356 359 1 3 3 2 359 357 355 354 353 351 351 350 351 351 354 356 359 360 358 356 354 351 349 348 347
42 36 35 38 39 35 29 22 16 10 4 0 357 355 353 351 349 349 349 349 350 350 350 350 350 352 353 354 356 358 360 1 1 0 359 356 352 349 346 344 343 343 344 346 347 346 342 339 339 339 340 340 341 343 346 349 351 353 354 354 354 355 358 0 360 358 356 354 353 352 350 349 348 348 349 351 354 357 359 359 359 357 354 352 350 348
37 34 33 34 31 26 21 16 10 3 359 357 356 355 355 354 352 351 351 351 351 351 351 350 351 352 354 356 359 1 3 3 3 2 1 359 355 352 349 347 346 346 347 349 349 348 345 341 339 339 339 339 340 341 344 347 350 352 352 352 351 352 353 356 357 356 354 353 352 351 349 347 346 346 347 348 351 354 357 359 360 359 357 354 351 348
34 32 31 29 24 19 14 9 4 0 358 357 357 357 357 356 354 353 353 352 352 352 351 351 351 352 353 356 359 3 5 5 5 4 3 1 359 356 354 352 350 350 350 350 350 349 348 345 342 340 340 340 341 341 343 346 349 351 351 351 350 349 348 350 352 353 353 352 351 350 348 346 345 344 345 347 349 352 354 357 359 359 358 355 351 348
33 32 29 24 19 15 10 7 4 1 0 360 360 359 359 357 356 355 354 353 353 352 351 351 352 352 354 356 359 3 6 7 6 5 5 5 4 2 359 357 355 355 353 352 350 349 350 349 348 345 344 343 343 343 344 346 348 349 350 350 348 346 344 345 348 349 349 349 349 348 346 345 343 343 344 346 348 350 352 354 356 358 357 355 352 349
31 29 25 22 21 18 15 11 7 4 4 3 2 1 360 359 358 356 355 354 353 352 352 352 353 354 355 356 358 1 4 6 6 6 6 7 7 7 6 3 1 359 357 354 351 349 349 349 350 351 350 348 346 346 346 346 347 348 348 347 346 345 344 345 346 346 345 345 345 345 345 344 342 342 343 344 345 347 349 352 354 355 356 355 352 350
29 27 25 25 23 20 16 10 7 5 6 5 4 2 1 360 359 357 356 354 353 353 354 354 355 356 357 358 359 1 3 5 6 6 6 7 8 10 12 10 8 4 1 356 353 350 349 349 350 352 352 351 350 349 349 348 347 346 345 344 343 342 343 343 343 343 342 342 342 342 343 343 342 342 342 342 342 344 346 349 351 353 354 353 352 349
26 25 23 21 18 14 9 5 3 4 5 6 5 3 2 360 359 358 356 355 354 354 355 356 357 359 0 1 2 2 3 3 4 5 5 5 7 8 11 14 14 12 8 2 357 352 350 350 352 353 354 352 351 350 350 349 347 344 342 341 340 340 340 340 340 340 339 339 340 341 342 342 343 342 341 340 340 341 343 345 347 350 352 352 350 348
22 20 17 14 11 6 4 2 2 3 5 5 5 4 3 1 0 359 357 357 356 356 357 358 359 1 3 4 5 4 4 3 3 3 4 4 5 5 6 8 11 13 13 11 7 2 357 354 353 354 355 353 351 350 349 348 346 343 340 339 339 339 338 338 338 338 338 338 339 341 342 343 342 341 340 338 338 338 339 341 344 347 349 349 349 347
19 16 14 11 8 6 5 5 5 6 6 6 5 4 4 3 2 1 360 359 359 359 359 360 0 2 4 6 6 5 4 4 3 3 3 4 4 4 3 2 1 2 4 7 9 10 9 6 2 359 358 356 353 351 348 347 345 342 340 339 338 338 337 336 336 337 337 338 339 341 342 342 342 340 339 336 335 334 335 337 340 343 346 347 347 346
19 16 15 14 13 13 12 12 12 11 10 8 6 5 4 4 3 3 2 1 1 1 2 2 3 4 6 7 7 6 4 3 3 3 4 4 4 3 2 0 359 357 356 356 356 358 1 6 8 8 5 0 356 351 347 345 343 341 340 339 338 338 337 336 337 338 338 339 340 341 341 341 341 339 338 335 333 332 333 334 336 340 344 345 346 345
22 22 22 23 23 21 20 19 18 16 13 10 8 7 6 6 5 4 4 3 3 4 4 5 6 7 8 8 7 6 4 3 3 3 4 4 4 3 2 1 359 358 357 355 355 354 354 356 360 3 6 3 357 352 347 345 344 342 340 339 338 338 339 338 339 339 340 340 341 341 341 341 340 338 337 335 333 332 332 332 334 338 342 344 345 345